星链-2374 (STARLINK-2374 )

导读

STARLINK-2374是美国SpaceX公司于2021年3月14日发射的星链低轨互联网卫星,属于星链第一代星座的组成部分,运行在近地轨道,单星重量约227-295公斤,配备相控阵天线与氪离子推进系统,主要为全球偏远、缺乏基础网络覆盖的区域提供高速宽带互联网接入服务,是星链全球覆盖网络构建过程中的一颗重要组网卫星。

基本信息
目录编号:
47913
目录名称:
STARLINK-2374
国际标识:
2021-021BF
轨道中心:
EARTH
卫星名称:
星链-2374
卫星全名:
星链-2374 (STARLINK-2374 )
卫星状态:
已陨落 最后检测时间 2025-01-26
发射日期:
2021-03-14 UTC
国别 :
美国 (US)
星等 :
--
该卫星已列入 空间交会检测服务 Space Conjunction Data Service (SCDS) ,当前飞行风险评估等级: 无高风险
轨道信息
数据来源 国际轨道数据
星历时间: 2025-01-27T07:34:30+0800
轨道信息已过期592天
半长轴: 6528.523km
偏心率: 0.0012523
轨道倾角: 53.033°
近地点辐角 198.020°
升交点赤经 281.157°
平近点角 253.928°
近地点: 142.212km
远地点: 158.564km
周期: 87.495分钟
每日圈数: 16.458127
详细信息
固有亮度:
5
最大亮度:
2.5
卫星平台:
Starlink V1.0
覆盖范围:
全球
运营商:
太空探索技术公司
运营商所在国:
美国
制造商(研发单位):
太空探索技术公司
制造商所在国:
美国
使用方式:
暂无
卫星简介
星链(Starlink)计划是由太空探索技术公司(SpaceX)提出的一个巨型低轨卫星互联网星座项目,计划在2019年至2024年间在太空搭建由约1.2万颗卫星组成的“星链”网络,其中1584颗将部署在地球上空550千米处的近地轨道,并从2020年开始工作。该卫星仍在工作。
与全量物体交会距离演化趋势
与全量物体交会风险概率演化趋势